Weather History for KPRC - October, 2011

Change the Weather History Date:

Wednesday, October 26, 2011

  Actual Average Record
Temperature  
Mean Temperature 52 °F 53 °F  
Max Temperature 62 °F 68 °F 85 °F (2008)
Min Temperature 39 °F 38 °F 0 °F (2009)
Degree Days  
Heating Degree Days 14    
Month to date heating degree days  
Since 1 July heating degree days  
Cooling Degree Days 0    
Month to date cooling degree days  
Year to date cooling degree days  
Growing Degree Days 2 (Base 50)    
Moisture  
Dew Point 39 °F    
Average Humidity 60    
Maximum Humidity 83    
Minimum Humidity 35    
Precipitation  
Precipitation 0.02 in 0.02 in 0.27 in (1951)
Month to date precipitation 0.77  
Year to date precipitation 11.94  
Sea Level Pressure  
Sea Level Pressure 29.83 in    
Wind  
Wind Speed 6 mph (NNW)    
Max Wind Speed 22 mph    
Max Gust Speed 28 mph    
Visibility 10 miles    
Events      
T = Trace of Precipitation, MM = Missing Value Source: NWS Daily Summary

Daily Weather History Graph

Daily Weather History Graph

Search for Another Location

Airport or City:

Trip Planner

Search our weather history database for the weather conditions in past years. The results will help you decide how hot, cold, wet, or windy it might be!

Date:

Astronomy

Oct. 26, 2011 Rise Set
Actual Time 6:44 AM MST 5:42 PM MST
Civil Twilight 6:18 AM MST 6:08 PM MST
Nautical Twilight 5:49 AM MST 6:37 PM MST
Astronomical Twilight 5:19 AM MST 7:06 PM MST
Moon 6:34 AM MST (10/26) 5:30 PM MST (10/26)
Length of Visible Light 11h 49m
Length of Day
10h 57m
Waning Crescent, 0% of the Moon is Illuminated
Oct 26
Waning Crescent
Oct 26
New
Nov 2
First Quarter
Nov 10
Full
Nov 18
Last Quarter

Hourly Weather History & Observations

Time (MST) Temp. Windchill Dew Point Humidity Pressure Visibility Wind Dir Wind Speed Gust Speed Precip Events Conditions
12:53 AM 55.9 °F - 48.0 °F 75% 29.79 in 10.0 mi Calm Calm - N/A   Clear
1:53 AM 55.9 °F - 48.9 °F 77% 29.78 in 10.0 mi SSE 4.6 mph - N/A   Partly Cloudy
2:53 AM 57.0 °F - 50.0 °F 77% 29.77 in 10.0 mi South 6.9 mph - N/A   Mostly Cloudy
3:53 AM 55.4 °F - 50.0 °F 82% 29.95 in 10.0 mi SSE 5.8 mph - N/A   Mostly Cloudy
4:53 AM 55.4 °F - 48.2 °F 77% 29.94 in 10.0 mi SSE 5.8 mph - N/A   Mostly Cloudy
5:53 AM 55.0 °F - 48.0 °F 77% 29.76 in 10.0 mi SE 5.8 mph - N/A   Mostly Cloudy
6:53 AM 53.1 °F - 48.0 °F 83% 29.78 in 10.0 mi SSE 4.6 mph - N/A   Mostly Cloudy
7:53 AM 57.2 °F - 48.2 °F 72% 29.95 in 10.0 mi Calm Calm - N/A   Scattered Clouds
8:53 AM 55.9 °F - 50.0 °F 80% 29.79 in 10.0 mi WSW 4.6 mph - 0.01 in   Mostly Cloudy
9:53 AM 57.9 °F - 48.9 °F 72% 29.79 in 10.0 mi WNW 8.1 mph 16.1 mph 0.01 in   Mostly Cloudy
10:53 AM 62.1 °F - 43.0 °F 50% 29.77 in 10.0 mi NW 13.8 mph - N/A   Mostly Cloudy
11:53 AM 57.9 °F - 39.9 °F 51% 29.79 in 10.0 mi North 15.0 mph - N/A   Mostly Cloudy
12:53 PM 59.0 °F - 37.9 °F 46% 29.77 in 10.0 mi North 21.9 mph 27.6 mph N/A   Mostly Cloudy
1:53 PM 59.0 °F - 36.0 °F 42% 29.76 in 10.0 mi NNW 12.7 mph - 0.00 in   Mostly Cloudy
2:53 PM 60.1 °F - 32.0 °F 35% 29.74 in 10.0 mi NNW 12.7 mph 20.7 mph N/A   Overcast
3:53 PM 55.9 °F - 32.0 °F 40% 29.77 in 10.0 mi NNE 5.8 mph - 0.00 in   Mostly Cloudy
4:53 PM 54.0 °F - 30.9 °F 41% 29.80 in 10.0 mi North 20.7 mph 26.5 mph 0.00 in   Mostly Cloudy
5:53 PM 51.1 °F - 27.0 °F 39% 29.83 in 10.0 mi North 12.7 mph - N/A   Mostly Cloudy
6:53 PM 48.0 °F - 24.1 °F 39% 29.87 in 10.0 mi NNW 9.2 mph - N/A   Clear
7:53 PM 45.0 °F 40.1 °F 23.0 °F 42% 29.89 in 10.0 mi North 9.2 mph - N/A   Clear
8:53 PM 42.1 °F - 27.0 °F 55% 29.91 in 10.0 mi Calm Calm - N/A   Clear
9:53 PM 42.1 °F 37.1 °F 30.0 °F 62% 29.91 in 10.0 mi NW 8.1 mph - N/A   Clear
10:53 PM 41.0 °F 35.2 °F 30.0 °F 65% 29.91 in 10.0 mi North 9.2 mph - N/A   Clear
11:53 PM 39.0 °F - 30.0 °F 70% 29.94 in 10.0 mi Calm Calm - N/A   Clear